Flag for Canada Weather past 2 weeks in Hamilton, Ontario, Canada

Now
55 °F

Broken clouds.


Feels Like: 53 °F
Forecast: 41 / 70 °F
Wind: 10 mph from Southwest

Location: Hamilton Airport


UV Index: 5 (Moderate)

Visibility: 15 mi


Pressure: 30.06 "Hg

Humidity: 51%

Dew point: 37 °F

Location of HamiltonLocation

Historic Weather in Hamilton

°F

Hamilton temperature yesterday

Maximum temperature yesterday: 54 °F (at 1:00 PM)
Minimum temperature yesterday: 32 °F (at 2:00 AM)
Average temperature yesterday: 43 °F

Past Weeks' High & Low Weather Summary

 TemperatureHumidityPressure
High72 °F (Apr 13, 4:00 PM)100% (Apr 7, 8:00 PM)30.54 "Hg (Apr 7, 8:00 PM)
Low18 °F (Apr 16, 5:00 AM)32% (Apr 9, 2:00 PM)29.30 "Hg (Apr 8, 5:00 AM)
Average43 °F69%30.04 "Hg
* Reported Apr 6 8:00 AM — Apr 21 8:00 AM, Hamilton, Weather by CustomWeather, © 2014

Note: Actual official high and low records may vary slightly from our data, if they occured in-between our weather recording intervals... More about our weather records

Advertising

Historic Weather Conditions — Data for Previous 24 hours

 ConditionsComfort  
Time TempWeatherWind HumidityBarometerVisibility
8:00 AM
Apr 21
46 °FBroken clouds.6 mph66%30.06 "Hg15 mi
7:00 AM45 °FPassing clouds.6 mph57%30.06 "Hg15 mi
6:00 AM43 °FPartly cloudy.5 mph57%30.07 "Hg15 mi
5:00 AM43 °FPassing clouds.5 mph61%30.07 "Hg15 mi
4:00 AM43 °FPassing clouds.5 mph61%30.09 "Hg15 mi
3:00 AM43 °FPassing clouds.5 mph66%30.10 "Hg15 mi
2:00 AM45 °FPassing clouds.8 mph66%30.11 "Hg15 mi
1:00 AM39 °FPassing clouds.2 mph70%30.14 "Hg15 mi
12:00 AM41 °FPassing clouds.5 mph66%30.15 "Hg15 mi
11:00 PM
Apr 20
43 °FPassing clouds.5 mph61%30.17 "Hg15 mi
10:00 PM41 °FPassing clouds.7 mph66%30.19 "Hg15 mi
9:00 PM41 °FScattered clouds.9 mph61%30.20 "Hg15 mi
8:00 PM45 °FScattered clouds.9 mph53%30.20 "Hg15 mi
7:00 PM50 °FScattered clouds.9 mph50%30.21 "Hg15 mi
6:00 PM52 °FScattered clouds.10 mph47%30.23 "Hg15 mi
5:00 PM54 °FPartly sunny.12 mph47%30.25 "Hg15 mi
4:00 PM52 °FPartly sunny.12 mph50%30.27 "Hg15 mi
3:00 PM54 °FPartly sunny.13 mph51%30.29 "Hg15 mi
2:00 PM54 °FPassing clouds.10 mph51%30.31 "Hg15 mi
1:00 PM54 °FScattered clouds.8 mph54%30.33 "Hg15 mi
12:00 PM52 °FPartly sunny.5 mph54%30.35 "Hg15 mi
11:00 AM48 °FPartly sunny.6 mph58%30.37 "Hg15 mi
10:00 AM45 °FPartly sunny.6 mph66%30.39 "Hg15 mi
9:00 AM41 °FPartly sunny.7 mph76%30.40 "Hg15 mi
Weather by CustomWeather, © 2014

See weather overview